VKG1466 ESMS-LGRP

Flight info

Callsign VKG1466
Flight time N/A
Altitude 35000
Route TELMO Z491 XELOL DCT FORFE DCT XERBI L996 DENKO L616 VELAB DCT DESEN DCT OGDAS DCT SAGAN DCT UPIVA DCT PATAK DCT PARAK DCT PELOV DCT NISVA DCT VANET DCT NIKTI DCT LMO DCT KERMA UL618 MES UN139 NAXAS UL52 RUPUM/N0386F230 N136 LOKNA
Aircraft A321/M-SDE2E3FGHIJ1RWXYZ/LB2

Departure

Time 2026-04-26 05:10
Airport Malmö Sturup Airport (ESMS)

Arrival

Time N/A
Airport Rhodes International Airport "Diagoras" (LGRP)
Time Latitude Longitude Altitude Speed Heading
2026-04-26 04:52 55.54011 13.36786 232 ft 0 kts 353°
2026-04-26 05:01 55.53997 13.36789 231 ft 4 kts 353°
2026-04-26 05:01 55.53972 13.36794 235 ft 2 kts 353°
2026-04-26 05:02 55.53950 13.36795 232 ft 4 kts 27°
2026-04-26 05:02 55.53937 13.36765 235 ft 3 kts 83°
2026-04-26 05:02 55.53935 13.36739 233 ft 0 kts 83°
2026-04-26 05:04 55.53936 13.36741 233 ft 1 kts 83°
2026-04-26 05:04 55.53938 13.36772 235 ft 4 kts 83°
2026-04-26 05:04 55.53942 13.36835 231 ft 6 kts 83°
2026-04-26 05:04 55.53948 13.36926 231 ft 9 kts 83°
2026-04-26 05:05 55.53954 13.37027 231 ft 7 kts 84°
2026-04-26 05:05 55.53960 13.37111 231 ft 8 kts 84°
2026-04-26 05:05 55.53946 13.37239 231 ft 11 kts 137°
2026-04-26 05:05 55.53879 13.37274 232 ft 9 kts 173°
2026-04-26 05:06 55.53804 13.37290 231 ft 15 kts 173°
2026-04-26 05:06 55.53667 13.37318 231 ft 24 kts 173°
2026-04-26 05:06 55.53502 13.37351 231 ft 23 kts 173°
2026-04-26 05:06 55.53345 13.37383 231 ft 22 kts 173°
2026-04-26 05:07 55.53199 13.37413 231 ft 21 kts 173°
2026-04-26 05:07 55.53061 13.37443 231 ft 19 kts 173°
2026-04-26 05:07 55.52934 13.37470 232 ft 18 kts 173°
2026-04-26 05:07 55.52814 13.37493 232 ft 17 kts 173°
2026-04-26 05:08 55.52686 13.37520 231 ft 23 kts 173°
2026-04-26 05:08 55.52518 13.37556 231 ft 24 kts 172°
2026-04-26 05:08 55.52374 13.37678 232 ft 22 kts 144°
2026-04-26 05:08 55.52315 13.37821 237 ft 8 kts 95°
2026-04-26 05:09 55.52324 13.37880 238 ft 4 kts 46°
2026-04-26 05:09 55.52365 13.37881 238 ft 10 kts 351°
2026-04-26 05:09 55.52608 13.37830 238 ft 71 kts 354°
2026-04-26 05:09 55.53315 13.37684 240 ft 131 kts 353°
2026-04-26 05:10 55.54380 13.37464 335 ft 168 kts 352°
2026-04-26 05:10 55.55506 13.37255 1146 ft 158 kts 354°
2026-04-26 05:10 55.56574 13.37066 1934 ft 153 kts 353°
2026-04-26 05:10 55.57680 13.36843 2250 ft 170 kts 353°
2026-04-26 05:11 55.58925 13.36584 2511 ft 188 kts 352°
2026-04-26 05:11 55.60239 13.36310 3016 ft 192 kts 352°
2026-04-26 05:11 55.61566 13.36138 3696 ft 192 kts
2026-04-26 05:11 55.62740 13.37289 4302 ft 206 kts 47°
2026-04-26 05:12 55.63165 13.39790 4867 ft 228 kts 89°
2026-04-26 05:12 55.62552 13.42451 5457 ft 242 kts 120°
2026-04-26 05:12 55.61477 13.44782 6051 ft 247 kts 128°
2026-04-26 05:12 55.60284 13.46980 6642 ft 249 kts 130°
2026-04-26 05:13 55.58875 13.48908 6917 ft 271 kts 155°
2026-04-26 05:13 55.56976 13.49822 7174 ft 293 kts 168°
2026-04-26 05:13 55.54947 13.50572 7733 ft 302 kts 168°
2026-04-26 05:13 55.52872 13.51339 8411 ft 308 kts 168°
2026-04-26 05:14 55.50761 13.52124 9088 ft 313 kts 168°
2026-04-26 05:14 55.48613 13.52925 9777 ft 317 kts 168°
2026-04-26 05:14 55.46437 13.53740 10404 ft 324 kts 168°
2026-04-26 05:14 55.44166 13.54641 10581 ft 346 kts 163°
2026-04-26 05:15 55.41844 13.56157 10706 ft 366 kts 153°
2026-04-26 05:15 55.39601 13.58473 10993 ft 379 kts 141°
2026-04-26 05:15 55.37567 13.61461 11486 ft 384 kts 134°
2026-04-26 05:15 55.35566 13.64639 12025 ft 391 kts 134°
2026-04-26 05:16 55.33525 13.67858 12555 ft 398 kts 134°
2026-04-26 05:16 55.31443 13.71125 13080 ft 405 kts 134°
2026-04-26 05:16 55.29326 13.74442 13599 ft 411 kts 134°
2026-04-26 05:16 55.27177 13.77812 14102 ft 418 kts 134°
2026-04-26 05:17 55.24994 13.81232 14568 ft 423 kts 134°
2026-04-26 05:17 55.22817 13.84636 15058 ft 428 kts 134°
2026-04-26 05:17 55.20586 13.88122 15609 ft 432 kts 134°
2026-04-26 05:17 55.18329 13.91649 16080 ft 437 kts 134°
2026-04-26 05:18 55.16048 13.95212 16545 ft 442 kts 134°
2026-04-26 05:18 55.13823 13.98683 16992 ft 447 kts 134°
2026-04-26 05:18 55.11488 14.02317 17465 ft 451 kts 134°
2026-04-26 05:18 55.09130 14.05980 17927 ft 456 kts 134°
2026-04-26 05:19 55.06810 14.09772 18377 ft 457 kts 128°
2026-04-26 05:19 55.04807 14.14045 18771 ft 454 kts 118°
2026-04-26 05:19 55.03178 14.18723 19166 ft 451 kts 111°
2026-04-26 05:19 55.01643 14.23512 19567 ft 454 kts 111°
2026-04-26 05:20 55.00088 14.28334 19963 ft 458 kts 111°
2026-04-26 05:20 54.98517 14.33178 20399 ft 461 kts 111°
2026-04-26 05:20 54.96829 14.37988 20730 ft 472 kts 118°
2026-04-26 05:20 54.94701 14.42438 21095 ft 484 kts 129°
2026-04-26 05:21 54.92082 14.46184 21423 ft 494 kts 146°
2026-04-26 05:21 54.88993 14.48854 21842 ft 498 kts 157°
2026-04-26 05:21 54.85786 14.51163 22236 ft 500 kts 158°
2026-04-26 05:21 54.82550 14.53439 22643 ft 503 kts 159°
2026-04-26 05:22 54.79293 14.55703 23019 ft 506 kts 158°
2026-04-26 05:22 54.76027 14.58022 23390 ft 509 kts 158°
2026-04-26 05:22 54.72757 14.60403 23761 ft 512 kts 157°
2026-04-26 05:22 54.69479 14.62841 24064 ft 514 kts 157°
2026-04-26 05:23 54.66192 14.65307 24387 ft 517 kts 157°
2026-04-26 05:23 54.62885 14.67781 24649 ft 519 kts 157°
2026-04-26 05:23 54.59562 14.70244 25016 ft 521 kts 158°
2026-04-26 05:23 54.56213 14.72700 25294 ft 524 kts 158°
2026-04-26 05:24 54.52846 14.75149 25582 ft 527 kts 158°
2026-04-26 05:24 54.49461 14.77597 25880 ft 529 kts 158°
2026-04-26 05:24 54.46061 14.80049 26175 ft 531 kts 158°
2026-04-26 05:24 54.42649 14.82513 26477 ft 533 kts 158°
2026-04-26 05:25 54.39225 14.84988 26768 ft 535 kts 158°
2026-04-26 05:25 54.35786 14.87474 27052 ft 537 kts 158°
2026-04-26 05:25 54.32336 14.89965 27329 ft 538 kts 159°
2026-04-26 05:25 54.28883 14.92454 27677 ft 539 kts 159°
2026-04-26 05:26 54.25381 14.94976 27972 ft 540 kts 159°
2026-04-26 05:26 54.21910 14.97468 28250 ft 542 kts 159°
2026-04-26 05:26 54.18422 14.99958 28578 ft 544 kts 159°
2026-04-26 05:26 54.14914 15.02454 28728 ft 549 kts 159°
2026-04-26 05:27 54.11382 15.04963 28932 ft 551 kts 159°
2026-04-26 05:27 54.07831 15.07485 29179 ft 554 kts 159°
2026-04-26 05:27 54.04273 15.10014 29393 ft 555 kts 159°
2026-04-26 05:27 54.00761 15.12510 29730 ft 555 kts 159°
2026-04-26 05:28 53.97150 15.15073 30012 ft 556 kts 159°
2026-04-26 05:28 53.93577 15.17604 30326 ft 556 kts 159°
2026-04-26 05:28 53.90058 15.20090 30634 ft 555 kts 159°
2026-04-26 05:28 53.86499 15.22599 30951 ft 554 kts 159°
2026-04-26 05:29 53.82941 15.25097 31267 ft 553 kts 159°
2026-04-26 05:29 53.79388 15.27585 31592 ft 552 kts 159°
2026-04-26 05:29 53.75846 15.30063 31874 ft 550 kts 159°
2026-04-26 05:29 53.72324 15.32521 32293 ft 547 kts 159°
2026-04-26 05:30 53.68814 15.34968 32660 ft 545 kts 159°
2026-04-26 05:30 53.65317 15.37400 32990 ft 543 kts 159°
2026-04-26 05:30 53.61825 15.39823 33314 ft 542 kts 159°
2026-04-26 05:30 53.58341 15.42236 33624 ft 541 kts 159°
2026-04-26 05:31 53.54857 15.44648 33934 ft 540 kts 159°
2026-04-26 05:31 53.51388 15.47053 34258 ft 539 kts 159°
2026-04-26 05:31 53.47918 15.49458 34469 ft 538 kts 159°
2026-04-26 05:31 53.44476 15.51839 34843 ft 533 kts 159°
2026-04-26 05:32 53.41050 15.54196 35115 ft 532 kts 159°
2026-04-26 05:32 53.37634 15.56530 35191 ft 529 kts 160°
2026-04-26 05:32 53.30833 15.61164 35183 ft 529 kts 160°
2026-04-26 05:33 53.24012 15.65817 35193 ft 530 kts 159°
2026-04-26 05:33 53.17200 15.70464 35205 ft 527 kts 160°
2026-04-26 05:34 53.10425 15.75055 35190 ft 525 kts 160°
2026-04-26 05:34 53.03652 15.79624 35189 ft 525 kts 160°
2026-04-26 05:35 52.96877 15.84183 35190 ft 525 kts 160°
2026-04-26 05:35 52.90107 15.88719 35195 ft 525 kts 160°
2026-04-26 05:36 52.83335 15.93236 35186 ft 525 kts 160°
2026-04-26 05:36 52.76556 15.97749 35186 ft 525 kts 160°
2026-04-26 05:37 52.69779 16.02256 35188 ft 525 kts 160°
2026-04-26 05:37 52.63004 16.06744 35153 ft 525 kts 160°
2026-04-26 05:38 52.56233 16.11213 35185 ft 523 kts 160°
2026-04-26 05:38 52.49480 16.15648 35225 ft 523 kts 160°
2026-04-26 05:39 52.42714 16.20076 35173 ft 524 kts 160°
2026-04-26 05:39 52.35944 16.24494 35169 ft 524 kts 160°
2026-04-26 05:40 52.29163 16.28898 35169 ft 525 kts 160°
2026-04-26 05:40 52.22380 16.33304 35171 ft 525 kts 160°
2026-04-26 05:41 52.15593 16.37694 35168 ft 525 kts 160°
2026-04-26 05:41 52.09903 16.41364 35130 ft 525 kts 160°
2026-04-26 05:42 52.03126 16.45716 35168 ft 524 kts 161°
2026-04-26 05:42 51.96337 16.50062 35161 ft 525 kts 160°
2026-04-26 05:43 51.89542 16.54404 35163 ft 525 kts 161°
2026-04-26 05:43 51.82740 16.58741 35122 ft 525 kts 160°
2026-04-26 05:44 51.75961 16.63044 35168 ft 523 kts 161°
2026-04-26 05:44 51.69187 16.67323 35179 ft 522 kts 161°
2026-04-26 05:45 51.62418 16.71583 35185 ft 523 kts 161°
2026-04-26 05:45 51.55641 16.75841 35131 ft 523 kts 161°
2026-04-26 05:46 51.48862 16.80082 35157 ft 522 kts 161°
2026-04-26 05:46 51.42078 16.84248 35172 ft 522 kts 162°
2026-04-26 05:47 51.35277 16.88305 35178 ft 521 kts 162°
2026-04-26 05:47 51.28489 16.92341 35150 ft 520 kts 162°
2026-04-26 05:48 51.21731 16.96376 35162 ft 518 kts 162°
2026-04-26 05:48 51.14980 17.00399 35164 ft 518 kts 162°
2026-04-26 05:49 51.04853 17.06419 35161 ft 518 kts 162°
2026-04-26 05:50 50.98115 17.10404 35163 ft 515 kts 163°
2026-04-26 05:50 50.91417 17.14360 35183 ft 513 kts 162°
2026-04-26 05:51 50.84717 17.18290 35169 ft 514 kts 162°
2026-04-26 05:51 50.78011 17.22211 35161 ft 514 kts 162°
2026-04-26 05:52 50.71308 17.26126 35158 ft 513 kts 162°
2026-04-26 05:52 50.64614 17.30022 35171 ft 512 kts 162°
2026-04-26 05:53 50.57932 17.33903 35177 ft 512 kts 162°
2026-04-26 05:53 50.51250 17.37769 35172 ft 512 kts 162°
2026-04-26 05:54 50.44575 17.41618 35179 ft 511 kts 162°
2026-04-26 05:54 50.37909 17.45448 35175 ft 510 kts 162°
2026-04-26 05:55 50.31247 17.49261 35174 ft 509 kts 162°
2026-04-26 05:55 50.24753 17.53517 35172 ft 511 kts 154°
2026-04-26 05:56 50.18463 17.58682 35161 ft 510 kts 154°
2026-04-26 05:56 50.12179 17.63813 35173 ft 509 kts 154°
2026-04-26 05:57 50.05904 17.68929 35180 ft 510 kts 154°
2026-04-26 05:57 49.99616 17.74038 35162 ft 510 kts 154°
2026-04-26 05:58 49.93319 17.79127 35141 ft 510 kts 154°
2026-04-26 05:58 49.87031 17.84199 35168 ft 509 kts 154°
2026-04-26 05:59 49.80756 17.89251 35174 ft 508 kts 154°
2026-04-26 05:59 49.74481 17.94277 35176 ft 507 kts 154°
2026-04-26 06:00 49.68199 17.99242 35171 ft 507 kts 156°
2026-04-26 06:00 49.61803 18.03792 35170 ft 506 kts 159°
2026-04-26 06:01 49.55342 18.08104 35170 ft 506 kts 159°
2026-04-26 06:01 49.48902 18.12463 35168 ft 506 kts 158°
2026-04-26 06:02 49.42485 18.16912 35133 ft 506 kts 158°
2026-04-26 06:02 49.36082 18.21370 35145 ft 505 kts 158°
2026-04-26 06:03 49.29677 18.25781 35148 ft 504 kts 158°